Location: Geroldsau
(48.7259°N, 8.2466°E)
Time: 09:38:17
(UTC+00:00)

SL-08 R/B - Pass Details

Date: 20 June 2021
Orbit: 674 x 738 km, 98.5° (Epoch: 27 July)

Event Time Altitude Azimuth Distance (km) Brightness Sun altitude
Rises 02:06:46 0° 147° (SSE) 3,038 6.4 -9.7°
Reaches altitude 10° 02:09:03 10° 141° (SE) 2,135 5.7 -9.4°
Maximum altitude 02:13:31 47° 68° (ENE) 927 4.4 -9.0°
Drops below altitude 10° 02:18:05 10° 356° (N) 2,187 6.6 -8.5°
Sets 02:20:26 0° 351° (N) 3,121 7.3 -8.3°
